Date String (YYYY-MM-DD hh:mm:ss) UTC,Instrument flags,absolute air pressure of the measurement (hPa),sample flow rate (lpm),inlet stack bypass flow (lpm),air temperature of the measurement (°C),ambient temperature measured by the external sensor (°C),aerosol sample conditioner tube jacket temperature (°C),OPC LED temperature (°C),internal box temperature (°C),relative humidity of the measurement (%),span deviation,mass concentration of particles derived from Lorenz-Mie calculation of OPC scattering (μg/m³),mass concentration of particles derived from Lorenz-Mie calculation of OPC scattering (μg/m³),mass concentration of particles derived from Lorenz-Mie calculation of OPC scattering (μg/m³)
DateTimeUTC,F1_M11,P_M11,Q1_M11,Q2_M11,T1_M11,T2_M11,T3_M11,T4_M11,T5_M11,U1_M11,ZSPAN_M11,X2_M11,X0_M11,X1_M11
2024-03-27 03:00:00,SystemResetWarning,0823.1,5.00,000.00,019.5,018.6,000.0,028.3,021.3,18.1,0000.5,0009.18,0015.05,0008.68
2024-03-27 03:01:00,SystemResetWarning,0823.2,5.00,000.00,019.5,018.5,000.0,028.3,021.3,18.3,0000.5,0009.13,0015.34,0008.64
2024-03-27 03:02:00,SystemResetWarning,0823.1,4.99,000.00,019.5,018.5,000.0,028.3,021.3,18.4,0000.5,0009.07,0015.38,0008.60
2024-03-27 03:03:00,SystemResetWarning,0822.6,5.00,000.00,019.5,018.5,000.0,028.3,021.2,18.4,0000.8,0009.07,0016.04,0008.59
2024-03-27 03:04:00,SystemResetWarning,0822.6,5.01,000.00,019.5,018.5,000.0,028.2,021.2,18.5,0000.6,0009.05,0015.88,0008.57
2024-03-27 03:05:00,SystemResetWarning,0822.6,5.00,000.00,019.4,018.5,000.0,028.2,021.2,18.6,-000.1,0009.03,0015.09,0008.55
2024-03-27 03:06:00,SystemResetWarning,0822.6,5.00,000.00,019.4,018.5,000.0,028.2,021.2,18.7,-000.3,0008.98,0014.66,0008.52
2024-03-27 03:07:00,SystemResetWarning,0822.8,5.00,000.00,019.4,018.5,000.0,028.2,021.2,18.8,-000.3,0008.96,0014.64,0008.49
2024-03-27 03:08:00,SystemResetWarning,0822.7,5.00,000.00,019.4,018.5,000.0,028.2,021.2,18.8,-000.3,0008.91,0014.08,0008.47
2024-03-27 03:09:00,SystemResetWarning,0822.6,5.00,000.00,019.4,018.4,000.0,028.2,021.2,18.8,-000.6,0008.89,0013.03,0008.45
2024-03-27 03:10:00,SystemResetWarning,0822.7,5.00,000.00,019.4,018.4,000.0,028.2,021.1,18.8,-000.2,0008.86,0013.00,0008.43
2024-03-27 03:11:00,SystemResetWarning,0822.9,5.00,000.00,019.4,018.4,000.0,028.1,021.1,18.8,0000.0,0008.81,0012.87,0008.41
2024-03-27 03:12:00,SystemResetWarning,0822.8,5.00,000.00,019.3,018.4,000.0,028.1,021.1,18.8,-000.1,0008.75,0012.52,0008.37
2024-03-27 03:13:00,SystemResetWarning,0822.7,5.00,000.00,019.3,018.4,000.0,028.1,021.1,18.8,-000.2,0008.74,0012.40,0008.35
2024-03-27 03:14:00,SystemResetWarning,0822.7,5.00,000.00,019.3,018.4,000.0,028.1,021.1,18.7,-000.5,0008.72,0012.13,0008.31
2024-03-27 03:15:00,SystemResetWarning,0822.7,5.00,000.00,019.3,018.4,000.0,028.1,021.1,18.7,-000.6,0008.69,0012.03,0008.29
2024-03-27 03:16:00,SystemResetWarning,0822.8,5.00,000.00,019.3,018.4,000.0,028.1,021.1,18.7,-000.4,0008.64,0011.86,0008.26
2024-03-27 03:17:00,SystemResetWarning,0822.7,5.00,000.00,019.3,018.4,000.0,028.1,021.1,18.7,-000.2,0008.62,0011.89,0008.23
2024-03-27 03:18:00,SystemResetWarning,0822.7,5.01,000.00,019.3,018.4,000.0,028.0,021.1,18.7,0000.0,0008.58,0011.85,0008.20
2024-03-27 03:19:00,SystemResetWarning,0822.8,5.01,000.00,019.3,018.4,000.0,028.0,021.1,18.8,0000.2,0008.52,0011.70,0008.16
2024-03-27 03:20:00,SystemResetWarning,0822.8,5.00,000.00,019.3,018.4,000.0,028.0,021.1,18.8,0000.4,0008.49,0011.75,0008.12
2024-03-27 03:21:00,SystemResetWarning,0822.8,4.99,000.00,019.3,018.4,000.0,028.0,021.1,18.9,0000.2,0008.52,0011.82,0008.10
2024-03-27 03:22:00,SystemResetWarning,0822.8,5.00,000.00,019.3,018.4,000.0,028.0,021.1,18.9,0000.2,0008.53,0011.92,0008.08
2024-03-27 03:23:00,SystemResetWarning,0822.7,5.00,000.00,019.3,018.4,000.0,028.0,021.0,18.9,0000.3,0008.55,0012.04,0008.07
2024-03-27 03:24:00,SystemResetWarning,0822.8,5.00,000.00,019.2,018.4,000.0,028.0,021.0,18.9,0000.2,0008.51,0012.00,0008.02
2024-03-27 03:25:00,SystemResetWarning,0822.8,5.01,000.00,019.2,018.4,000.0,028.0,021.0,19.0,0000.5,0008.47,0011.50,0008.02
2024-03-27 03:26:00,SystemResetWarning,0822.7,5.01,000.00,019.2,018.4,000.0,028.0,021.0,19.0,0000.9,0008.44,0011.98,0007.99
2024-03-27 03:27:00,SystemResetWarning,0822.9,5.01,000.00,019.2,018.4,000.0,028.0,021.0,19.0,0000.8,0008.43,0011.96,0007.97
2024-03-27 03:28:00,SystemResetWarning,0823.1,5.00,000.00,019.2,018.4,000.0,027.9,021.0,19.0,0000.9,0008.40,0012.19,0007.95
2024-03-27 03:29:00,SystemResetWarning,0823.0,5.00,000.00,019.2,018.4,000.0,027.9,021.0,18.8,0001.1,0008.39,0012.27,0007.94
2024-03-27 03:30:00,SystemResetWarning,0822.8,5.00,000.00,019.2,018.3,000.0,027.9,021.0,18.6,0001.3,0008.40,0012.37,0007.91
2024-03-27 03:31:00,SystemResetWarning,0822.7,5.00,000.00,019.2,018.3,000.0,027.9,021.0,18.6,0001.3,0008.39,0012.64,0007.89
2024-03-27 03:32:00,SystemResetWarning,0822.8,5.00,000.00,019.2,018.3,000.0,027.9,021.0,18.7,0001.0,0008.33,0012.89,0007.86
2024-03-27 03:33:00,SystemResetWarning,0823.0,5.00,000.00,019.2,018.3,000.0,027.9,021.0,18.7,0000.8,0008.28,0012.74,0007.84
2024-03-27 03:34:00,SystemResetWarning,0823.3,4.99,000.00,019.2,018.3,000.0,027.9,021.0,18.6,0000.8,0008.23,0012.72,0007.81
2024-03-27 03:35:00,SystemResetWarning,0823.1,4.99,000.00,019.2,018.3,000.0,027.9,021.0,18.6,0000.9,0008.19,0012.63,0007.79
2024-03-27 03:36:00,SystemResetWarning,0823.1,5.01,000.00,019.2,018.3,000.0,027.9,021.0,18.6,0001.0,0008.15,0012.60,0007.75
2024-03-27 03:37:00,SystemResetWarning,0823.2,5.00,000.00,019.2,018.3,000.0,027.9,020.9,18.6,0000.9,0008.14,0012.32,0007.72
2024-03-27 03:38:00,SystemResetWarning,0823.3,5.01,000.00,019.1,018.3,000.0,027.9,020.9,18.5,0000.6,0008.14,0012.70,0007.70
2024-03-27 03:39:00,SystemResetWarning,0823.2,5.00,000.00,019.1,018.2,000.0,027.8,020.9,18.5,0000.2,0008.11,0012.56,0007.66
2024-03-27 03:40:00,SystemResetWarning,0823.2,4.99,000.00,019.1,018.2,000.0,027.8,020.9,18.5,-000.0,0008.06,0012.61,0007.61
2024-03-27 03:41:00,SystemResetWarning,0823.2,4.99,000.00,019.1,018.2,000.0,027.8,020.9,18.6,-000.5,0007.99,0012.65,0007.57
2024-03-27 03:42:00,SystemResetWarning,0823.1,5.01,000.00,019.1,018.2,000.0,027.8,020.9,18.7,-000.8,0007.93,0012.35,0007.52
2024-03-27 03:43:00,SystemResetWarning,0823.2,5.01,000.00,019.1,018.2,000.0,027.8,020.9,18.7,-001.0,0007.87,0011.75,0007.47
2024-03-27 03:44:00,SystemResetWarning,0823.4,4.99,000.00,019.1,018.2,000.0,027.8,020.9,18.8,-000.7,0007.82,0011.68,0007.43
2024-03-27 03:45:00,SystemResetWarning,0823.3,4.99,000.00,019.1,018.2,000.0,027.8,020.9,18.8,-000.5,0007.77,0011.43,0007.39
2024-03-27 03:46:00,SystemResetWarning,0823.1,4.99,000.00,019.1,018.2,000.0,027.8,020.9,18.8,-000.3,0007.74,0011.46,0007.34
2024-03-27 03:47:00,SystemResetWarning,0823.1,5.00,000.00,019.1,018.2,000.0,027.8,020.9,18.8,-000.7,0007.71,0011.51,0007.30
2024-03-27 03:48:00,SystemResetWarning,0823.0,5.01,000.00,019.1,018.2,000.0,027.8,020.9,18.9,-000.8,0007.63,0011.28,0007.24
2024-03-27 03:49:00,SystemResetWarning,0823.0,5.01,000.00,019.1,018.1,000.0,027.8,020.8,19.0,-000.2,0007.55,0010.70,0007.19
2024-03-27 03:50:00,SystemResetWarning,0823.0,5.00,000.00,019.0,018.1,000.0,027.8,020.8,19.0,-000.1,0007.49,0010.66,0007.15
2024-03-27 03:51:00,SystemResetWarning,0822.9,4.99,000.00,019.0,018.1,000.0,027.8,020.8,19.0,-000.0,0007.45,0010.54,0007.11
2024-03-27 03:52:00,SystemResetWarning,0823.0,5.00,000.00,019.0,018.1,000.0,027.7,020.8,19.0,0000.2,0007.45,0010.33,0007.09
2024-03-27 03:53:00,SystemResetWarning,0822.9,4.99,000.00,019.0,018.1,000.0,027.7,020.8,19.0,0000.4,0007.43,0010.31,0007.07
2024-03-27 03:54:00,SystemResetWarning,0822.9,4.99,000.00,019.0,018.1,000.0,027.7,020.8,19.0,0000.7,0007.42,0010.25,0007.07
2024-03-27 03:55:00,SystemResetWarning,0822.8,5.00,000.00,019.0,018.1,000.0,027.7,020.8,19.0,0000.5,0007.45,0010.39,0007.08
2024-03-27 03:56:00,SystemResetWarning,0822.9,5.01,000.00,019.0,018.1,000.0,027.7,020.8,18.9,0000.5,0007.44,0010.64,0007.06
2024-03-27 03:57:00,SystemResetWarning,0822.9,4.99,000.00,019.0,018.1,000.0,027.7,020.7,18.9,0000.5,0007.41,0010.96,0007.04
2024-03-27 03:58:00,SystemResetWarning,0822.9,4.99,000.00,019.0,018.1,000.0,027.7,020.7,18.9,0000.7,0007.38,0011.04,0007.03
2024-03-27 03:59:00,SystemResetWarning,0822.9,5.01,000.00,018.9,018.1,000.0,027.7,020.7,18.8,0001.2,0007.35,0011.04,0007.00
